EW5711 Weather Reports


time (UTC)temp
C
wind
direction
speed
KPH
gust
KPH
rain 1hr
cm
rain 24hr
cm
rain mn
cm
humidity
%
barometer
mb
20260508005103 11 144 0.0 0.0 0.00 0.05 0.03 43 1029.5
20260508004606 11 144 0.0 0.0 0.00 0.05 0.03 42 1029.5
20260508004107 11 144 0.0 0.0 0.00 0.05 0.03 43 1029.5
20260508003608 11 144 0.0 1.6 0.00 0.05 0.03 44 1029.4
20260508003107 11 144 0.0 1.6 0.00 0.05 0.03 42 1029.3
20260508002608 12 144 0.0 1.6 0.00 0.05 0.03 43 1029.3
20260508002109 12 144 0.0 1.6 0.00 0.05 0.03 43 1029.3
20260508001612 12 144 0.0 0.0 0.00 0.05 0.03 41 1029.1
20260508001109 12 144 0.0 3.2 0.00 0.05 0.03 41 1029.1
20260508000611 13 144 0.0 3.2 0.00 0.05 0.03 38 1029.1
20260508000114 13 117 0.0 4.8 0.00 0.05 0.03 37 1029.0
20260507235615 13 117 0.0 4.8 0.00 0.20 0.03 36 1029.0
20260507234617 13 103 0.0 9.7 0.00 0.20 0.03 35 1029.0
20260507234117 13 78 3.2 9.7 0.00 0.20 0.03 34 1028.9
20260507233614 14 110 1.6 4.8 0.00 0.20 0.03 34 1028.8
20260507233116 14 132 0.0 9.7 0.00 0.20 0.03 35 1028.7
20260507232616 14 177 3.2 9.7 0.00 0.20 0.03 35 1028.7
20260507232115 15 120 0.0 11.3 0.00 0.20 0.03 34 1028.7
20260507231618 15 136 1.6 11.3 0.00 0.20 0.03 33 1028.7
20260507231117 15 145 0.0 3.2 0.00 0.20 0.03 34 1028.7
20260507230616 15 143 0.0 8.0 0.00 0.20 0.03 33 1028.7
20260507230119 15 148 1.6 11.3 0.00 0.20 0.03 34 1028.6
20260507225619 15 171 3.2 16.1 0.00 0.30 0.03 32 1028.5
20260507225134 15 102 4.8 19.3 0.00 0.30 0.03 32 1028.5
20260507224631 15 121 4.8 19.3 0.00 0.30 0.03 32 1028.4
20260507224108 15 178 3.2 11.3 0.00 0.30 0.03 32 1028.4
20260507223605 15 177 4.8 11.3 0.00 0.30 0.03 31 1028.2
20260507223107 15 147 4.8 11.3 0.00 0.30 0.03 31 1028.2
20260507222607 16 133 3.2 17.7 0.00 0.30 0.03 32 1028.1
20260507222119 16 204 6.4 17.7 0.00 0.30 0.03 31 1028.1
20260507221602 16 318 3.2 19.3 0.00 0.30 0.03 33 1028.0
20260507221102 16 113 4.8 19.3 0.00 0.30 0.03 31 1027.9
20260507220623 16 127 9.7 19.3 0.00 0.30 0.03 31 1027.9
20260507215601 16 116 3.2 16.1 0.00 0.43 0.03 32 1027.8
20260507215101 16 150 3.2 19.3 0.00 0.43 0.03 32 1027.8
20260507214606 16 124 1.6 19.3 0.00 0.43 0.03 32 1027.7
20260507214107 16 117 4.8 17.7 0.00 0.43 0.03 32 1027.9
20260507213609 16 116 6.4 22.5 0.00 0.43 0.03 31 1027.7
20260507213108 16 176 8.0 22.5 0.00 0.43 0.03 30 1027.8
20260507212607 16 144 4.8 12.9 0.00 0.43 0.03 31 1027.8
20260507212105 16 147 6.4 16.1 0.00 0.43 0.03 32 1027.9
20260507211604 16 103 3.2 16.1 0.00 0.43 0.03 34 1027.8
20260507211106 16 128 3.2 20.9 0.00 0.43 0.03 32 1027.8
20260507210601 16 148 8.0 20.9 0.00 0.43 0.03 31 1027.9
20260507205610 16 108 3.2 24.1 0.00 0.74 0.03 34 1027.7
20260507205111 16 140 8.0 24.1 0.00 0.74 0.03 32 1027.7
20260507204611 16 118 6.4 17.7 0.00 0.74 0.03 34 1027.7
20260507204158 16 144 3.2 16.1 0.00 0.74 0.03 34 1027.6
20260507203636 16 149 3.2 12.9 0.00 0.74 0.03 33 1027.6
20260507203117 17 109 4.8 17.7 0.00 0.74 0.03 32 1027.6
20260507202616 16 100 6.4 17.7 0.00 0.74 0.03 33 1027.5
20260507202113 16 101 8.0 16.1 0.00 0.74 0.03 32 1027.6
20260507201612 16 220 4.8 17.7 0.00 0.74 0.03 34 1027.7
20260507201105 17 144 9.7 17.7 0.00 0.74 0.03 32 1027.8
20260507200603 17 140 3.2 12.9 0.00 0.74 0.03 34 1027.7
20260507200127 17 130 4.8 17.7 0.00 0.74 0.03 34 1027.7
20260507195059 16 153 6.4 20.9 0.00 0.89 0.03 32 1027.9
20260507194613 17 150 9.7 19.3 0.00 0.89 0.03 35 1027.8
20260507194108 16 76 0.0 12.9 0.00 0.89 0.03 36 1027.8
20260507193626 16 142 4.8 16.1 0.00 0.89 0.03 35 1027.8
20260507193107 17 117 4.8 16.1 0.00 0.89 0.03 35 1028.0
20260507192602 16 263 6.4 14.5 0.00 0.89 0.03 36 1027.9
20260507192121 16 124 4.8 14.5 0.00 0.89 0.03 36 1028.1
20260507191637 16 121 4.8 22.5 0.00 0.89 0.03 35 1028.1
20260507191121 16 248 8.0 22.5 0.00 0.89 0.03 34 1028.2
20260507190601 16 161 6.4 20.9 0.00 0.89 0.03 33 1028.2
20260507190119 16 105 6.4 22.5 0.00 0.89 0.03 34 1028.2
20260507185619 16 261 8.0 22.5 0.00 0.91 0.03 34 1028.3
20260507185114 16 148 8.0 22.5 0.00 0.91 0.03 33 1028.2
20260507184616 17 121 4.8 20.9 0.00 0.91 0.03 35 1028.2
20260507184117 16 136 6.4 20.9 0.00 0.91 0.03 34 1028.3
20260507183604 16 166 8.0 22.5 0.00 0.91 0.03 34 1028.3
20260507183140 16 128 8.0 22.5 0.00 0.91 0.03 34 1028.3
20260507182602 16 81 3.2 22.5 0.00 0.91 0.03 38 1028.4
20260507182103 16 150 9.7 27.4 0.00 0.91 0.03 34 1028.6
20260507181607 16 196 12.9 27.4 0.00 0.91 0.03 35 1028.3
20260507181129 17 109 6.4 17.7 0.00 0.91 0.03 35 1028.3
20260507180609 17 101 6.4 16.1 0.00 0.91 0.03 37 1028.3
20260507180110 17 64 4.8 16.1 0.00 0.91 0.03 39 1028.3
20260507175609 16 120 1.6 16.1 0.00 0.91 0.03 38 1028.4
20260507175108 16 107 4.8 16.1 0.00 0.91 0.03 38 1028.2
20260507174606 16 189 3.2 25.7 0.00 0.91 0.03 37 1028.3
20260507174106 16 121 3.2 25.7 0.00 0.91 0.03 39 1028.4
20260507173607 16 149 8.0 16.1 0.00 0.91 0.03 37 1028.3
20260507173109 16 132 4.8 16.1 0.00 0.91 0.03 35 1028.4
20260507172601 16 118 8.0 16.1 0.00 0.91 0.03 36 1028.6
20260507172102 16 148 1.6 22.5 0.00 0.91 0.03 40 1028.4
20260507171605 16 113 9.7 24.1 0.00 0.91 0.03 41 1028.6
20260507171124 16 167 9.7 24.1 0.00 0.91 0.03 44 1028.6
20260507170606 16 172 1.6 22.5 0.00 0.91 0.03 45 1028.6
20260507170106 16 105 6.4 16.1 0.00 0.91 0.03 46 1028.7
20260507165559 15 81 3.2 16.1 0.00 0.91 0.03 50 1028.9
20260507165113 15 113 6.4 16.1 0.00 0.91 0.03 50 1029.1
20260507164603 16 110 1.6 17.7 0.00 0.91 0.03 51 1029.0
20260507164120 15 183 4.8 17.7 0.00 0.91 0.03 51 1029.1
20260507163635 15 135 6.4 17.7 0.00 0.91 0.03 50 1028.9
20260507163117 15 102 4.8 19.3 0.00 0.91 0.03 52 1029.0
20260507162610 15 140 6.4 19.3 0.00 0.91 0.03 53 1029.1
20260507162111 15 97 1.6 17.7 0.00 0.91 0.03 56 1029.1
20260507161611 15 151 6.4 17.7 0.00 0.91 0.03 52 1029.2
20260507161133 15 76 8.0 19.3 0.00 0.91 0.03 51 1029.3
20260507160603 15 124 8.0 19.3 0.00 0.91 0.03 51 1029.3
20260507160105 15 116 1.6 19.3 0.00 0.91 0.03 54 1029.3
20260507155604 15 126 6.4 19.3 0.00 0.91 0.03 51 1029.3
20260507155105 15 122 1.6 16.1 0.00 0.91 0.03 52 1029.4
20260507154628 15 199 1.6 20.9 0.00 0.91 0.03 55 1029.5
20260507154129 15 122 3.2 24.1 0.00 0.91 0.03 53 1029.5
20260507153608 15 129 3.2 9.7 0.00 0.91 0.03 52 1029.6
20260507153109 15 152 0.0 12.9 0.00 0.91 0.03 53 1029.6
20260507152609 15 248 4.8 14.5 0.00 0.91 0.03 52 1029.7
20260507152130 15 193 4.8 17.7 0.00 0.91 0.03 51 1029.8
20260507151611 15 163 4.8 16.1 0.00 0.91 0.03 53 1029.7
20260507151112 15 156 3.2 16.1 0.00 0.91 0.03 53 1029.9
20260507150612 14 140 1.6 12.9 0.00 0.91 0.03 56 1029.9
20260507150114 14 114 4.8 12.9 0.00 0.91 0.03 55 1030.1
20260507145612 15 161 3.2 11.3 0.00 0.91 0.03 56 1029.9
20260507145134 15 118 4.8 19.3 0.00 0.91 0.03 54 1029.9
20260507144632 15 137 4.8 19.3 0.00 0.91 0.03 54 1030.0
20260507144111 15 143 4.8 17.7 0.00 0.91 0.03 54 1030.0
20260507143632 14 144 6.4 12.9 0.00 0.91 0.03 53 1029.9
20260507143100 14 173 4.8 11.3 0.00 0.91 0.03 55 1029.9
20260507142108 14 215 6.4 12.9 0.00 0.91 0.03 55 1029.9
20260507141609 14 130 3.2 12.9 0.00 0.91 0.03 55 1029.8
20260507141109 14 166 1.6 6.4 0.00 0.91 0.03 57 1029.9
20260507140609 14 133 0.0 8.0 0.00 0.91 0.03 60 1029.9
20260507140108 13 114 1.6 11.3 0.00 0.91 0.03 57 1029.8
20260507135610 13 140 3.2 11.3 0.00 0.91 0.03 60 1029.9
20260507135111 13 110 0.0 8.0 0.00 0.91 0.03 59 1029.9
20260507134612 13 79 0.0 8.0 0.00 0.91 0.03 61 1030.0
20260507134111 13 126 1.6 9.7 0.00 0.91 0.03 62 1030.0
20260507133610 13 211 4.8 9.7 0.00 0.91 0.03 60 1030.1
20260507133133 13 95 3.2 9.7 0.00 0.91 0.03 60 1030.3
20260507132613 13 118 0.0 6.4 0.00 0.91 0.03 64 1030.2
20260507132134 12 123 1.6 9.7 0.00 0.91 0.03 62 1030.3
20260507131615 12 202 1.6 11.3 0.00 0.91 0.03 63 1030.4
20260507131137 12 124 1.6 11.3 0.00 0.91 0.03 65 1030.4
20260507130618 12 99 1.6 14.5 0.00 0.91 0.03 65 1030.5
20260507130100 12 224 1.6 16.1 0.00 0.91 0.03 67 1030.5
20260507125601 12 159 1.6 12.9 0.00 0.91 0.03 68 1030.4
20260507125102 11 189 4.8 12.9 0.00 0.91 0.03 67 1030.5
20260507124605 12 113 0.0 4.8 0.00 0.91 0.03 70 1030.5
20260507124125 11 211 1.6 6.4 0.00 0.91 0.03 72 1030.5
20260507123605 11 119 0.0 6.4 0.00 0.91 0.03 72 1030.6
20260507123108 11 124 0.0 6.4 0.00 0.91 0.03 74 1030.6
20260507122607 10 140 1.6 3.2 0.00 0.91 0.03 73 1030.8
20260507122128 10 102 0.0 1.6 0.00 0.91 0.03 75 1030.7
20260507121630 10 128 0.0 3.2 0.00 0.91 0.03 75 1030.7
20260507121109 10 119 0.0 4.8 0.00 0.91 0.03 76 1030.8
20260507120631 10 126 0.0 6.4 0.00 0.91 0.03 76 1030.7
20260507120112 10 169 1.6 6.4 0.00 0.91 0.03 76 1030.6
20260507115611 10 115 1.6 4.8 0.00 0.91 0.03 76 1030.8
20260507115111 10 180 1.6 4.8 0.00 0.91 0.03 77 1030.6
20260507114613 9 145 0.0 3.2 0.00 0.91 0.03 79 1030.5
20260507114113 9 142 0.0 8.0 0.00 0.91 0.03 79 1030.3
20260507113614 8 172 0.0 8.0 0.00 0.91 0.03 79 1030.4
20260507113137 9 127 0.0 1.6 0.00 0.91 0.03 79 1030.3
20260507112634 9 138 0.0 1.6 0.00 0.91 0.03 79 1030.4
20260507112136 8 151 0.0 1.6 0.00 0.91 0.03 79 1030.7
20260507111618 8 134 0.0 4.8 0.00 0.91 0.03 79 1030.7
20260507111138 8 126 0.0 4.8 0.00 0.91 0.03 79 1030.7
20260507110618 8 88 0.0 6.4 0.00 0.91 0.03 79 1030.4
20260507110120 8 116 0.0 11.3 0.00 0.91 0.03 79 1030.3
20260507105559 8 200 0.0 11.3 0.00 0.91 0.03 79 1030.1
20260507105059 8 103 1.6 6.4 0.00 0.91 0.03 79 1030.2
20260507104620 8 131 0.0 6.4 0.00 0.91 0.03 79 1030.0
20260507104059 8 147 0.0 6.4 0.00 0.91 0.03 79 1030.1
20260507103600 8 129 0.0 1.6 0.00 0.91 0.03 79 1030.2
20260507103104 8 129 0.0 1.6 0.00 0.91 0.03 79 1030.1
20260507102604 8 129 0.0 1.6 0.00 0.91 0.03 79 1030.3
20260507102105 8 155 0.0 1.6 0.00 0.91 0.03 79 1030.1
20260507101608 8 129 0.0 1.6 0.00 0.91 0.03 79 1030.2
20260507101107 8 131 0.0 1.6 0.00 0.91 0.03 79 1030.2
20260507100607 8 138 0.0 1.6 0.00 0.91 0.03 79 1030.3
20260507100108 8 117 0.0 4.8 0.00 0.91 0.03 79 1030.4
20260507095609 8 145 1.6 4.8 0.00 0.91 0.03 79 1030.1
20260507095130 8 173 0.0 4.8 0.00 0.91 0.03 79 1030.2
20260507094612 8 154 0.0 0.0 0.00 0.91 0.03 78 1030.4
20260507094112 8 154 0.0 0.0 0.00 0.91 0.03 78 1030.2
20260507093612 8 154 0.0 3.2 0.00 0.91 0.03 78 1030.0
20260507092100 8 85 0.0 1.6 0.03 0.91 0.03 79 1030.3
20260507091603 8 128 0.0 1.6 0.03 0.91 0.03 78 1030.0
20260507091104 8 189 0.0 1.6 0.03 0.91 0.03 78 1029.9
20260507090604 8 189 0.0 1.6 0.03 0.91 0.03 78 1029.8
20260507090128 8 139 0.0 1.6 0.03 0.91 0.03 78 1029.8
20260507085607 8 202 0.0 0.0 0.03 0.91 0.03 79 1029.9
20260507085107 8 202 0.0 0.0 0.03 0.91 0.03 79 1030.0
20260507084609 9 202 0.0 1.6 0.03 0.91 0.03 79 1029.5
20260507084109 9 140 0.0 6.4 0.03 0.91 0.03 79 1029.5
20260507083608 9 164 0.0 0.0 0.03 0.91 0.03 79 1029.6
20260507083110 9 164 0.0 1.6 0.03 0.91 0.03 79 1029.6
20260507082609 9 164 0.0 1.6 0.00 0.89 0.00 79 1029.7
20260507082110 10 133 0.0 4.8 0.00 0.89 0.00 79 1029.2
20260507081608 10 102 0.0 9.7 0.00 0.89 0.00 79 1029.4
20260507081107 10 209 3.2 9.7 0.00 0.89 0.00 78 1029.5
20260507080608 10 119 1.6 9.7 0.00 0.89 0.00 78 1029.6
20260507075612 10 130 1.6 11.3 0.00 0.89 0.00 79 1029.7
20260507075110 10 142 3.2 11.3 0.00 0.89 0.00 78 1029.5
20260507074612 10 142 1.6 9.7 0.00 0.89 0.00 79 1029.3
20260507074113 10 106 1.6 12.9 0.00 0.89 0.00 79 1029.4
20260507073612 10 118 3.2 12.9 0.00 0.89 0.00 79 1029.3
20260507073116 10 117 0.0 8.0 0.00 0.89 0.00 79 1029.2
20260507072616 10 158 1.6 8.0 0.00 0.89 0.00 79 1029.3
20260507072117 10 180 1.6 9.7 0.00 0.89 0.00 79 1029.3
20260507071600 10 132 0.0 9.7 0.00 0.89 0.00 79 1029.3
20260507071100 10 188 1.6 8.0 0.00 0.89 0.00 79 1029.4
20260507070601 10 98 0.0 8.0 0.00 0.89 0.00 79 1029.0
20260507070104 10 226 1.6 8.0 0.00 0.89 0.00 79 1029.0
20260507065617 10 125 0.0 8.0 0.00 0.89 0.00 79 1029.1
20260507065118 10 139 0.0 12.9 0.00 0.89 0.00 79 1029.1
20260507064600 10 158 1.6 12.9 0.00 0.89 0.00 79 1029.1
20260507064100 10 124 3.2 9.7 0.00 0.89 0.00 79 1028.8
20260507063601 10 138 0.0 8.0 0.00 0.89 0.00 79 1028.9
20260507063105 10 60 0.0 8.0 0.00 0.89 0.00 79 1028.8
20260507062600 10 120 1.6 11.3 0.00 0.89 0.00 79 1028.8
20260507062101 10 116 3.2 11.3 0.00 0.89 0.00 79 1028.7
20260507061603 11 108 1.6 9.7 0.00 0.89 0.00 79 1028.8
20260507061103 11 156 0.0 6.4 0.00 0.89 0.00 79 1028.8
20260507060604 11 147 0.0 6.4 0.00 0.89 0.00 79 1028.9
20260507060106 11 192 3.2 6.4 0.00 0.89 0.00 79 1028.9
20260507055624 11 351 0.0 4.8 0.00 0.89 0.00 79 1029.2
20260507055104 11 122 0.0 4.8 0.00 0.89 0.00 79 1029.2
20260507054626 11 145 1.6 4.8 0.00 0.89 0.00 79 1029.2
20260507054105 11 80 0.0 3.2 0.00 0.89 0.00 78 1029.1
20260507053620 11 138 0.0 6.4 0.00 0.89 0.00 78 1029.1
20260507053101 11 125 0.0 6.4 0.00 0.89 0.00 78 1029.2
20260507052620 11 106 0.0 3.2 0.00 0.89 0.00 78 1029.2
20260507052100 11 143 0.0 6.4 0.00 0.89 0.00 78 1029.0
20260507051602 12 95 0.0 9.7 0.00 0.89 0.00 78 1028.9
20260507051101 12 117 0.0 9.7 0.00 0.89 0.00 78 1028.7
20260507050602 12 122 0.0 6.4 0.00 0.89 0.00 78 1028.9
20260507050125 12 104 1.6 6.4 0.00 0.89 0.00 78 1028.9
20260507045604 12 75 1.6 6.4 0.00 0.89 0.00 78 1028.8
20260507045118 12 132 0.0 6.4 0.00 0.89 0.00 78 1028.7
20260507044600 12 147 1.6 11.3 0.00 0.89 0.00 78 1028.7
20260507044121 12 162 3.2 11.3 0.00 0.89 0.00 78 1028.9
20260507043601 12 65 1.6 6.4 0.00 0.89 0.00 78 1028.9
20260507043102 13 116 1.6 8.0 0.00 0.89 0.00 77 1029.1
20260507042601 13 121 3.2 8.0 0.00 0.89 0.00 77 1029.1
20260507042100 13 131 0.0 4.8 0.00 0.89 0.00 76 1028.9
20260507041602 13 200 1.6 4.8 0.00 0.89 0.00 75 1028.8
20260507041102 13 121 1.6 9.7 0.03 0.89 0.00 75 1028.7
20260507040623 13 136 1.6 9.7 0.03 0.89 0.00 75 1028.6
20260507040145 13 120 0.0 6.4 0.03 0.89 0.00 75 1028.6
20260507035617 13 150 0.0 9.7 0.03 0.89 0.89 75 1028.4
20260507035114 14 111 1.6 12.9 0.03 0.89 0.89 75 1028.4
20260507034615 14 94 3.2 14.5 0.03 0.89 0.89 75 1028.2
20260507034114 14 119 3.2 14.5 0.03 0.89 0.89 74 1028.2
20260507033616 14 85 0.0 12.9 0.03 0.89 0.89 73 1028.1
20260507033138 15 125 4.8 16.1 0.03 0.89 0.89 73 1028.1
20260507032617 15 96 6.4 16.1 0.03 0.89 0.89 72 1028.1
20260507032117 15 144 1.6 12.9 0.03 0.89 0.89 72 1028.1
20260507031601 15 105 0.0 6.4 0.00 0.86 0.86 71 1028.1
20260507031101 15 131 1.6 4.8 0.00 0.86 0.86 71 1027.9
20260507030624 15 50 0.0 3.2 0.00 0.86 0.86 71 1027.7
20260507030105 15 131 0.0 4.8 0.00 0.86 0.86 71 1027.6
20260507025605 15 119 0.0 4.8 0.00 0.86 0.86 71 1027.7
20260507025106 15 119 0.0 3.2 0.00 0.86 0.86 71 1027.6
20260507024608 15 87 0.0 3.2 0.00 0.86 0.86 71 1027.6
20260507024107 15 67 0.0 8.0 0.00 0.86 0.86 71 1027.6
20260507023607 15 60 1.6 8.0 0.00 0.86 0.86 72 1027.5
20260507023111 15 12 1.6 12.9 0.00 0.86 0.86 72 1027.6
20260507022611 15 52 0.0 12.9 0.00 0.86 0.86 72 1027.7
20260507022131 15 62 1.6 11.3 0.00 0.86 0.86 72 1027.6
20260507021611 15 50 1.6 8.0 0.00 0.86 0.86 72 1027.6
20260507021111 15 87 1.6 9.7 0.00 0.86 0.86 72 1027.7
20260507020613 15 3 3.2 9.7 0.00 0.86 0.86 72 1027.7
20260507015617 15 81 1.6 9.7 0.00 0.86 0.86 72 1027.8
20260507015138 15 108 0.0 12.9 0.00 0.86 0.86 72 1027.9
20260507014559 15 85 4.8 12.9 0.00 0.86 0.86 72 1028.0
20260507014059 15 51 3.2 14.5 0.00 0.86 0.86 72 1028.0
20260507013559 15 56 0.0 14.5 0.00 0.86 0.86 72 1028.0
20260507013103 15 83 3.2 16.1 0.00 0.86 0.86 72 1028.0
20260507012603 15 62 1.6 9.7 0.00 0.86 0.86 72 1028.0
20260507012124 15 79 1.6 14.5 0.00 0.86 0.86 72 1027.9
20260507011606 15 44 3.2 14.5 0.00 0.86 0.86 72 1028.0
20260507011105 15 36 3.2 14.5 0.00 0.86 0.86 72 1028.1
20260507010606 15 78 1.6 14.5 0.00 0.86 0.86 72 1028.0
20260507010108 15 31 6.4 12.9 0.00 0.86 0.86 72 1028.1
20260507005629 15 43 3.2 12.9 0.00 0.86 0.86 72 1028.0